Savannah Hunter, GA

7:45 AM EDT on March 23, 2017 (GMT -0400)
Hunter Army Air Field

Weather History for KSVN - October, 2012

Change the Weather History Date:

Thursday, October 11, 2012

  Actual Average Record
Temperature  
Mean Temperature 66 °F -  
Max Temperature 77 °F 77 °F 89 °F (2014)
Min Temperature 54 °F 58 °F 44 °F (2000)
Growing Degree Days 16 (Base 50)    
Moisture  
Dew Point 57 °F    
Average Humidity 78    
Maximum Humidity 96    
Minimum Humidity 53    
Precipitation  
Precipitation 0.17 in - - ()
Sea Level Pressure  
Sea Level Pressure 30.19 in    
Wind  
Wind Speed 3 mph (NNE)    
Max Wind Speed 12 mph    
Max Gust Speed -    
Visibility 10 miles    
Events      
Averages and records for this station are not official NWS values.
T = Trace of Precipitation, MM = Missing Value Source: NWS Daily Summary

Daily Weather History Graph

Daily Weather History Graph

Search for Another Location

Airport or City:

Trip Planner

Search our weather history database for the weather conditions in past years. The results will help you decide how hot, cold, wet, or windy it might be!

Date:

Astronomy

Oct. 11, 2012 Rise Set
Actual Time 7:25 AM EDT 6:56 PM EDT
Civil Twilight 7:01 AM EDT 7:20 PM EDT
Nautical Twilight 6:32 AM EDT 7:49 PM EDT
Astronomical Twilight 6:04 AM EDT 8:17 PM EDT
Moon 3:16 AM EDT (10/11) 4:20 PM EDT (10/11)
Length of Visible Light 12h 19m
Length of Day
11h 30m
Waning Crescent, 18% of the Moon is Illuminated
Oct 11
Waning Crescent
Oct 15
New
Oct 21
First Quarter
Oct 29
Full
Nov 6
Last Quarter

Hourly Weather History & Observations

Time (EDT) Temp. Dew Point Humidity Pressure Visibility Wind Dir Wind Speed Gust Speed Precip Events Conditions
12:55 AM 60.4 °F 58.1 °F 92% 30.14 in 10.0 mi Calm Calm - N/A   Clear
1:55 AM 59.0 °F 57.2 °F 94% 30.14 in 10.0 mi Calm Calm - N/A   Clear
2:55 AM 57.4 °F 55.9 °F 95% 30.14 in 10.0 mi Calm Calm - N/A   Clear
3:55 AM 57.0 °F 55.8 °F 96% 30.14 in 10.0 mi NNW 3.5 mph - N/A   Clear
4:55 AM 59.2 °F 56.1 °F 90% 30.14 in 10.0 mi North 3.5 mph - N/A   Clear
5:55 AM 58.8 °F 54.3 °F 85% 30.14 in 10.0 mi NNW 3.5 mph - N/A   Clear
6:55 AM 54.7 °F 52.5 °F 92% 30.16 in 10.0 mi Calm Calm - N/A   Clear
7:55 AM 55.0 °F 52.7 °F 92% 30.18 in 10.0 mi Calm Calm - N/A   Clear
8:55 AM 61.2 °F 53.6 °F 76% 30.20 in 10.0 mi North 6.9 mph - N/A   Clear
9:55 AM 65.3 °F 55.6 °F 71% 30.23 in 10.0 mi NNE 5.8 mph - N/A   Clear
10:55 AM 69.1 °F 56.7 °F 65% 30.24 in 10.0 mi NNE 9.2 mph - N/A   Clear
11:55 AM 72.3 °F 56.5 °F 57% 30.25 in 10.0 mi NNE 10.4 mph - N/A   Clear
12:55 PM 74.7 °F 57.9 °F 56% 30.24 in 10.0 mi NE 8.1 mph - N/A   Clear
1:55 PM 75.4 °F 58.6 °F 56% 30.22 in 10.0 mi Calm Calm - N/A   Clear
2:55 PM 76.5 °F 58.1 °F 53% 30.21 in 10.0 mi Calm Calm - 0.16 in   Partly Cloudy
3:55 PM 77.0 °F 60.1 °F 56% 30.20 in 10.0 mi Calm Calm - 0.01 in   Partly Cloudy
4:55 PM 74.7 °F 60.3 °F 61% 30.20 in 10.0 mi East 11.5 mph - N/A   Partly Cloudy
5:55 PM 72.1 °F 60.3 °F 66% 30.19 in 10.0 mi East 11.5 mph - N/A   Clear
6:55 PM 68.5 °F 60.1 °F 74% 30.20 in 10.0 mi East 4.6 mph - N/A   Clear
7:55 PM 67.8 °F 60.3 °F 77% 30.21 in 10.0 mi Calm Calm - N/A   Clear
8:55 PM 65.3 °F 60.1 °F 83% 30.22 in 10.0 mi Calm Calm - N/A   Clear
9:55 PM 62.2 °F 59.2 °F 90% 30.23 in 10.0 mi Calm Calm - N/A   Clear
10:55 PM 61.7 °F 59.0 °F 91% 30.23 in 10.0 mi Calm Calm - N/A   Clear
11:55 PM 60.4 °F 59.0 °F 95% 30.22 in 10.0 mi Calm Calm - N/A   Clear